Hourly Data Report for June 19, 2017

WESTERN HEAD
NOVA SCOTIA

43°59'24.070" N
64°39'51.008" W
10.10 m
8206240
71411
WWE

Download Data

Hourly Data (June 2017)
Hourly Data Report for June 19, 2017
TIME
LST
Temp Definition
°C
Dew Point Definition
°C
Rel Hum Definition
%
Precip. Amount Definition
mm

Wind Dir Definition
10's deg

Wind Spd Definition
km/h
Visibility Definition
km
Stn Press Definition
kPa
Hmdx Definition


Wind Chill Definition


Weather Definition


00:00 11.5 11.5 100 0.0 19 22   101.42     LegendNANA
01:00 11.7 11.7 100 0.0 20 29   101.41     LegendNANA
02:00 11.4 11.4 100 0.0 20 27   101.40     LegendNANA
03:00 11.3 11.3 100 0.0 19 26   101.37     LegendNANA
04:00 13.4 13.4 100 0.0 22 28   101.38     LegendNANA
05:00 12.0 12.0 100 0.2 22 19   101.41     LegendNANA
06:00 12.0 12.0 100 0.0 21 23   101.42     LegendNANA
07:00 11.9 11.9 100 0.0 20 32   101.43     LegendNANA
08:00 12.1 12.1 100 0.0 20 28   101.45     LegendNANA
09:00 12.6 12.6 100 0.0 20 27   101.44     LegendNANA
10:00 12.5 12.5 100 0.0 20 29   101.45     LegendNANA
11:00 12.4 12.4 100 0.0 20 29   101.48     LegendNANA
12:00 12.0 12.0 100 0.0 20 32   101.48     LegendNANA
13:00 12.1 12.1 100 0.0 19 27   101.48     LegendNANA
14:00 12.1 12.1 100 0.0 20 30   101.47     LegendNANA
15:00 12.2 12.2 100 0.0 19 29   101.45     LegendNANA
16:00 12.0 12.0 100 0.0 20 32   101.44     LegendNANA
17:00 11.9 11.9 100 0.0 20 30   101.43     LegendNANA
18:00 11.7 11.7 100 0.0 20 27   101.46     LegendNANA
19:00 11.4 11.4 100 0.0 20 26   101.47     LegendNANA
20:00 11.7 11.7 100 0.0 20 28   101.52     LegendNANA
21:00 11.2 11.2 100 0.0 20 27   101.57     LegendNANA
22:00 10.8 10.8 100 0.0 19 24   101.62     LegendNANA
23:00 11.2 11.2 100 0.0 20 28   101.62     LegendNANA

Notes on Data Quality.

Legend

  • E = Estimated
  • M = Missing
  • NA = Not Available*
  • [empty] = Indicates an unobserved value
Date modified: